STARLINK-38362, 100512

Orbit data source: Space-Track

STARLINK-38362, 100512 is a payload satellite owned by SpaceX/Seattle (US) in LEO that was launched on Wed, 26 Aug 2026 UTC launched from the Air Force Western Test Range (AFWTR). Payload-class satellites include a variety of spacecraft equipped with specific instruments for various scientific and technological missions. These include communications satellites like Starlink; space stations such as the ISS; scientific satellites like the Hubble; Earth observation satellites from companies like Planet Labs, Umbra, and HawkEye 360; GPS; miniature CubeSats for education and research; and military/defense satellites.

Loading next visibility...
Identifier
100512, 2026-197L
Orbit
LEO
Country
Flag of USUS
Related business
Manufacturer
SpaceX/Seattle
Mission
Operational spacecraft
Bus & Motor
STARLINK V2MO, Unknown motor
Mass
575 kg wet, ~530 kg dry
Launch date (UTC)
2026-08-26 (2 weeks ago)
Launch vehicle
Unknown
Launch site
Air Force Western Test Range (AFWTR)
Object type
Payload
Rocket body
Debris
Shape & HBR
BOX + PAN, 17.7 m
Radar Cross Section
RCS unknown

Expand to show TLE details & history
Last TLE update: 7 hours ago

TLE from 7 hours ago
0 STARLINK-38362
1 A0512U 26197L   26251.48939637  .00356993  00000-0  16585-2 0  9990
2 A0512  69.9985 155.8671 0003440 261.6245  98.4567 15.82290742  2096
Epoch: 2026-09-08T11:44Z
TLE epoch observation values (Epoch: 2026-09-08T11:44:43.846Z)
Latitude
-0.00003°
Longitude
-7.87067°
Altitude
326.818 km
Speed
7.712 km/s
True Right ascension
10h 23m 28s
True Declination
0° 00' 00"
Sunlit
Object was in daylight at epoch
Visualization orbit readout
Latitude
Unknown
Longitude
Unknown
Altitude
Unknown
Speed
Unknown
Apparent Right ascension
Unknown
Apparent Declination
Unknown
Sunlit
N/A
Visualization observer readout
Local Sidereal Time
11:21:31
Azimuth
Unknown
Elevation
Unknown
Doppler factor
Unknown
Orbital elements
Apogee altitude
324.141 km
Perigee altitude
319.532 km
Semi-major axis
6,699.973 km
Eccentricity
0.00034
Inclination
69.9985°
RAAN
155.8671°
Arg. of periapsis
261.6245°
True anomaly
98.49569°
Mean anomaly
98.4567°
Eccentric anomaly
98.47619°
Mean motion
3.95762 °/min
Orbital period
90.96 mins
BSTAR
0.0016585
Loading maneuver chart data...
Computing Atmospheric mass density...
Loading historical data...
Loading historical data...
Loading historical data...
Loading historical data...
Loading historical data...
Loading historical data...
Loading historical data...

Documentation

Showing up to 5 results
|